FW2558 Weather Reports


Display with metric or nautical units.
time (UTC)temp
F
wind
direction
speed
MPH
gust
MPH
rain 1hr
in
rain 24hr
in
rain mn
in
humidity
%
barometer
mb
20191019063539 62 50 0.0 1.0 0.00 1.35 0.00 83 1013.7
20191019063124 62 50 0.0 1.0 0.00 1.35 0.00 83 1013.7
20191019062537 62 50 0.0 1.0 0.00 1.35 0.00 83 1013.9
20191019062037 62 50 0.0 0.0 0.00 1.35 0.00 83 1014.1
20191019061648 62 50 0.0 0.0 0.00 1.35 0.00 82 1014.2
20191019061037 62 50 0.0 2.0 0.00 1.35 0.00 82 1014.4
20191019060538 62 50 0.0 2.0 0.00 1.35 0.00 82 1014.4
20191019060116 62 50 0.0 2.0 0.00 1.35 0.00 82 1014.4
20191019055532 62 50 1.0 4.0 0.00 1.35 1.35 81 1014.5
20191019055041 62 50 1.0 4.0 0.00 1.35 1.35 81 1014.6
20191019054633 62 50 1.0 3.0 0.00 1.35 1.35 81 1014.7
20191019054034 62 50 0.0 4.0 0.00 1.35 1.35 82 1014.7
20191019053531 62 50 1.0 4.0 0.00 1.35 1.35 82 1014.8
20191019053105 62 50 0.0 4.0 0.00 1.35 1.35 82 1014.8
20191019052538 62 50 2.0 4.0 0.00 1.35 1.35 82 1014.9
20191019052039 62 49 1.0 3.0 0.00 1.35 1.35 82 1014.8
20191019051537 62 37 1.0 3.0 0.00 1.35 1.35 82 1014.9
20191019051034 62 80 0.0 3.0 0.00 1.35 1.35 82 1014.9
20191019050535 62 80 0.0 5.0 0.00 1.35 1.35 81 1015.0
20191019050053 62 80 1.0 5.0 0.00 1.35 1.35 81 1015.1
20191019045534 62 80 2.0 4.0 0.00 1.35 1.35 81 1015.0
20191019045032 63 80 1.0 5.0 0.00 1.35 1.35 81 1015.0
20191019044545 63 80 2.0 5.0 0.00 1.35 1.35 81 1015.0
20191019044028 62 77 3.0 6.0 0.00 1.35 1.35 81 1015.0
20191019043528 62 110 2.0 4.0 0.00 1.35 1.35 82 1015.1
20191019043056 62 52 2.0 4.0 0.00 1.35 1.35 82 1015.1
20191019042534 62 44 1.0 4.0 0.00 1.35 1.35 82 1015.2
20191019042028 62 38 0.0 4.0 0.00 1.35 1.35 82 1015.3
20191019041611 62 26 1.0 3.0 0.00 1.35 1.35 82 1015.4
20191019041033 62 5 1.0 3.0 0.00 1.35 1.35 83 1015.4
20191019040533 62 5 1.0 3.0 0.00 1.35 1.35 83 1015.4
20191019040057 62 360 0.0 2.0 0.00 1.35 1.35 83 1015.5
20191019035535 62 360 0.0 2.0 0.00 1.35 1.35 83 1015.6
20191019034556 62 360 0.0 2.0 0.00 1.35 1.35 82 1015.5
20191019034033 62 360 0.0 3.0 0.00 1.35 1.35 82 1015.5
20191019033526 62 355 0.0 3.0 0.00 1.35 1.35 82 1015.4
20191019033044 62 286 0.0 2.0 0.00 1.35 1.35 81 1015.4
20191019032531 63 286 0.0 2.0 0.00 1.35 1.35 81 1015.3
20191019032037 63 286 0.0 4.0 0.00 1.35 1.35 81 1015.4
20191019031541 63 286 0.0 4.0 0.00 1.35 1.35 81 1015.5
20191019031029 63 41 0.0 4.0 0.00 1.35 1.35 81 1015.3
20191019030529 63 48 2.0 4.0 0.00 1.35 1.35 81 1015.4
20191019030112 63 83 0.0 2.0 0.00 1.35 1.35 82 1015.3
20191019025522 64 84 1.0 2.0 0.00 1.35 1.35 82 1015.2
20191019025022 64 84 1.0 3.0 0.00 1.35 1.35 82 1015.2
20191019024535 64 84 1.0 5.0 0.00 1.35 1.35 82 1015.1
20191019024021 64 79 2.0 6.0 0.00 1.35 1.35 82 1015.1
20191019023521 64 57 4.0 7.0 0.00 1.35 1.35 82 1014.9
20191019023027 63 48 3.0 7.0 0.00 1.35 1.35 82 1014.8
20191019022529 63 49 3.0 5.0 0.00 1.35 1.35 82 1014.8
20191019022023 63 52 3.0 5.0 0.00 1.35 1.35 82 1014.8
20191019021548 63 55 3.0 7.0 0.00 1.35 1.35 82 1014.7
20191019021027 64 51 4.0 7.0 0.00 1.35 1.35 82 1014.7
20191019020526 64 57 4.0 7.0 0.00 1.35 1.35 82 1014.7
20191019020055 64 55 4.0 6.0 0.00 1.35 1.35 84 1014.6
20191019015519 64 57 3.0 6.0 0.00 1.35 1.35 86 1014.6
20191019015019 64 59 2.0 6.0 0.00 1.35 1.35 87 1014.6
20191019014526 64 63 2.0 4.0 0.00 1.35 1.35 88 1014.7
20191019014024 64 67 2.0 4.0 0.00 1.35 1.35 88 1014.5
20191019013519 64 61 2.0 5.0 0.00 1.35 1.35 88 1014.5
20191019013040 64 72 2.0 5.0 0.00 1.35 1.35 88 1014.4
20191019012527 65 54 2.0 4.0 0.00 1.35 1.35 89 1014.3
20191019012017 65 67 1.0 4.0 0.00 1.35 1.35 89 1014.4
20191019011532 65 5 1.0 4.0 0.00 1.35 1.35 89 1014.3
20191019011019 65 306 0.0 3.0 0.00 1.35 1.35 89 1014.3
20191019010518 65 300 0.0 3.0 0.00 1.35 1.35 89 1014.3
20191019010030 65 311 0.0 2.0 0.00 1.35 1.35 89 1014.3
20191019005525 65 314 0.0 4.0 0.00 1.35 1.35 89 1014.4
20191019005017 65 289 1.0 4.0 0.00 1.35 1.35 89 1014.2
20191019004524 65 294 1.0 3.0 0.00 1.35 1.35 89 1014.1
20191019004021 66 264 0.0 3.0 0.00 1.35 1.35 89 1014.1
20191019003522 66 260 0.0 2.0 0.00 1.35 1.35 89 1013.9
20191019003048 66 260 0.0 4.0 0.01 1.35 1.35 88 1013.9
20191019002524 66 260 1.0 4.0 0.02 1.35 1.35 88 1013.8
20191019002018 66 252 2.0 4.0 0.03 1.35 1.35 88 1013.7
20191019001524 65 181 1.0 3.0 0.04 1.35 1.35 87 1013.6
20191019001021 65 83 1.0 6.0 0.05 1.35 1.35 88 1013.3
20191019000516 65 86 3.0 6.0 0.05 1.35 1.35 88 1013.0
20191019000023 65 50 2.0 4.0 0.06 1.35 1.35 88 1013.0
20191018235516 65 360 1.0 2.0 0.06 1.35 1.35 87 1012.8
20191018235016 66 355 0.0 0.0 0.07 1.35 1.35 87 1012.8
20191018234554 66 355 0.0 0.0 0.07 1.35 1.35 87 1012.9
20191018234015 66 355 0.0 0.0 0.07 1.35 1.35 86 1012.9
20191018233515 66 355 0.0 2.0 0.08 1.35 1.35 86 1012.9
20191018233022 66 355 0.0 2.0 0.07 1.34 1.34 85 1012.9
20191018232519 66 355 0.0 3.0 0.07 1.33 1.33 85 1013.0
20191018232023 66 355 1.0 3.0 0.08 1.32 1.32 84 1013.0
20191018231524 66 213 0.0 3.0 0.15 1.31 1.31 84 1013.1
20191018231015 66 86 1.0 2.0 0.22 1.30 1.30 83 1013.1
20191018230522 66 86 0.0 2.0 0.26 1.30 1.30 83 1013.0
20191018230022 67 86 0.0 3.0 0.30 1.29 1.29 82 1013.0
20191018225514 67 86 1.0 3.0 0.32 1.29 1.29 82 1012.9
20191018225013 66 86 0.0 2.0 0.32 1.28 1.28 81 1012.8
20191018224530 66 86 0.0 4.0 0.32 1.28 1.28 81 1012.8
20191018224013 66 86 2.0 4.0 0.32 1.27 1.27 81 1012.8
20191018223514 66 108 1.0 6.0 0.32 1.27 1.27 82 1012.8
20191018223023 66 121 0.0 4.0 0.32 1.27 1.27 83 1012.6
20191018222514 66 58 2.0 5.0 0.31 1.26 1.26 82 1012.6
20191018221610 66 62 3.0 6.0 0.19 1.13 1.13 82 1012.8
20191018221013 67 58 4.0 7.0 0.12 1.07 1.07 81 1012.8
20191018220516 67 55 4.0 7.0 0.08 1.03 1.03 81 1012.7
20191018220035 67 49 2.0 7.0 0.04 0.99 0.99 80 1012.5
20191018215512 68 15 3.0 10.0 0.02 0.97 0.97 79 1012.5
20191018215016 68 36 4.0 10.0 0.01 0.96 0.96 79 1012.4
20191018214543 68 65 3.0 8.0 0.01 0.96 0.96 78 1012.1
20191018214011 69 70 2.0 10.0 0.00 0.95 0.95 78 1012.1
20191018213513 69 69 6.0 12.0 0.00 0.95 0.95 77 1012.0
20191018213022 70 86 8.0 12.0 0.00 0.95 0.95 78 1011.9
20191018212515 70 121 3.0 5.0 0.00 0.95 0.95 79 1011.7
20191018212011 69 152 2.0 3.0 0.00 0.95 0.95 80 1011.4
20191018211010 69 175 1.0 6.0 0.00 0.95 0.95 80 1012.0
20191018210014 69 210 3.0 7.0 0.00 0.95 0.95 80 1012.0
20191018205510 69 207 4.0 7.0 0.00 1.14 0.95 80 1011.6
20191018205008 69 211 2.0 7.0 0.00 1.14 0.95 80 1011.5
20191018204541 69 160 1.0 7.0 0.00 1.14 0.95 80 1011.5
20191018204010 69 210 3.0 8.0 0.00 1.14 0.95 82 1011.4
20191018203513 70 190 1.0 5.0 0.00 1.14 0.95 85 1011.4
20191018203015 70 198 2.0 4.0 0.00 1.14 0.95 84 1011.4
20191018202509 70 116 1.0 3.0 0.00 1.14 0.95 87 1011.5
20191018202006 70 5 0.0 3.0 0.01 1.14 0.95 86 1011.7
20191018201514 70 5 0.0 0.0 0.03 1.14 0.95 87 1012.0
20191018201011 70 5 0.0 0.0 0.09 1.14 0.95 88 1012.0
20191018200008 69 5 0.0 0.0 0.38 1.14 0.95 89 1012.0
20191018195504 69 5 0.0 0.0 0.63 1.21 0.95 89 1012.2
20191018195003 69 355 0.0 0.0 0.81 1.21 0.95 89 1012.3
20191018194509 68 355 0.0 1.0 0.91 1.21 0.95 89 1012.4
20191018194002 68 355 0.0 2.0 0.94 1.21 0.95 88 1012.3
20191018193614 68 355 0.0 2.0 0.95 1.21 0.95 87 1012.4
20191018193145 67 355 0.0 4.0 0.95 1.21 0.95 83 1012.5
20191018192601 67 360 1.0 7.0 0.95 1.21 0.95 81 1012.6
20191018192058 67 266 2.0 7.0 0.94 1.20 0.94 78 1012.6
20191018191812 67 306 3.0 6.0 0.92 1.18 0.92 77 1012.7
20191018191058 67 252 3.0 7.0 0.86 1.12 0.86 75 1012.9
20191018190558 68 273 2.0 8.0 0.74 1.00 0.74 74 1013.0
20191018190140 69 238 4.0 8.0 0.56 0.83 0.56 72 1012.8
20191018185604 71 281 2.0 7.0 0.32 0.57 0.32 72 1012.9
20191018185055 72 317 1.0 8.0 0.14 0.40 0.14 70 1012.8
20191018184647 73 292 1.0 8.0 0.04 0.30 0.04 68 1012.6
20191018184055 74 261 2.0 7.0 0.01 0.27 0.01 66 1012.6
20191018183554 75 332 1.0 8.0 0.00 0.26 0.00 63 1012.6
20191018183303 75 323 2.0 8.0 0.00 0.26 0.00 61 1012.6
20191018182600 76 269 5.0 8.0 0.00 0.26 0.00 60 1012.7
20191018182056 76 207 5.0 11.0 0.00 0.26 0.00 59 1012.6
20191018181617 77 214 6.0 12.0 0.00 0.26 0.00 58 1012.6
20191018181055 77 233 4.0 10.0 0.00 0.26 0.00 58 1012.6
20191018180552 77 158 3.0 10.0 0.00 0.26 0.00 57 1012.8
20191018180149 78 204 4.0 9.0 0.00 0.26 0.00 56 1012.9
20191018175557 78 253 4.0 10.0 0.00 0.26 0.00 57 1013.0
20191018175056 77 218 5.0 11.0 0.00 0.26 0.00 58 1013.0
20191018174704 76 221 7.0 11.0 0.00 0.26 0.00 57 1013.2
20191018174051 76 227 5.0 10.0 0.00 0.26 0.00 59 1013.2
20191018173548 76 248 4.0 9.0 0.00 0.26 0.00 58 1013.3
20191018173156 76 128 4.0 10.0 0.00 0.26 0.00 57 1013.3
20191018172548 78 228 5.0 10.0 0.00 0.26 0.00 53 1013.5
20191018172049 80 5 2.0 15.0 0.00 0.26 0.00 46 1013.6
20191018171624 80 19 4.0 15.0 0.00 0.26 0.00 43 1013.4
20191018171046 80 134 7.0 15.0 0.00 0.26 0.00 43 1013.4
20191018170555 79 97 7.0 18.0 0.00 0.26 0.00 45 1013.5
20191018170147 79 121 9.0 18.0 0.00 0.26 0.00 46 1013.7
20191018165542 79 104 10.0 19.0 0.00 0.26 0.00 46 1013.7
20191018165049 79 101 12.0 19.0 0.00 0.26 0.00 46 1013.9
20191018164608 79 103 11.0 19.0 0.00 0.26 0.00 47 1014.0
20191018164045 79 78 9.0 16.0 0.00 0.26 0.00 49 1014.0
20191018163537 79 38 10.0 17.0 0.00 0.26 0.00 48 1014.2
20191018163130 79 118 9.0 17.0 0.00 0.26 0.00 47 1014.3
20191018162535 79 74 7.0 17.0 0.00 0.26 0.00 48 1014.5
20191018162038 79 113 9.0 17.0 0.00 0.26 0.00 47 1014.4
20191018161657 78 159 10.0 17.0 0.00 0.26 0.00 47 1014.5
20191018161035 79 118 8.0 16.0 0.00 0.26 0.00 47 1014.6
20191018160543 79 126 7.0 16.0 0.00 0.26 0.00 49 1014.6
20191018160116 78 38 10.0 16.0 0.00 0.26 0.00 48 1014.6
20191018155528 78 127 9.0 16.0 0.00 0.26 0.00 48 1014.6
20191018155037 78 146 10.0 17.0 0.00 0.26 0.00 48 1014.4
20191018154552 78 98 12.0 17.0 0.00 0.26 0.00 48 1014.5
20191018154023 78 125 7.0 15.0 0.00 0.26 0.00 50 1014.4
20191018153523 78 49 7.0 15.0 0.00 0.26 0.00 51 1014.4
20191018153101 77 144 8.0 19.0 0.00 0.26 0.00 51 1014.4
20191018152526 77 113 11.0 19.0 0.00 0.26 0.00 51 1014.4
20191018152018 77 126 9.0 16.0 0.00 0.26 0.00 51 1014.4
20191018151517 77 119 8.0 16.0 0.00 0.26 0.00 52 1014.4
20191018151016 77 90 11.0 16.0 0.00 0.26 0.00 51 1014.4
20191018150514 77 142 9.0 16.0 0.00 0.26 0.00 51 1014.5
20191018150040 77 121 9.0 16.0 0.00 0.26 0.00 50 1014.5
20191018145511 77 90 9.0 13.0 0.00 0.26 0.00 52 1014.5
20191018145011 77 187 7.0 12.0 0.00 0.26 0.00 57 1014.4
20191018144527 76 208 5.0 17.0 0.00 0.26 0.00 58 1014.4
20191018144006 76 123 8.0 17.0 0.00 0.26 0.00 59 1014.6
20191018143506 76 101 5.0 14.0 0.00 0.26 0.00 59 1014.6
20191018143005 75 156 6.0 15.0 0.00 0.26 0.00 59 1014.5
20191018142503 75 131 5.0 14.0 0.00 0.26 0.00 60 1014.5
20191018142004 74 109 5.0 14.0 0.00 0.26 0.00 60 1014.4
20191018141058 74 107 8.0 14.0 0.00 0.26 0.00 60 1014.5
20191018140557 74 119 5.0 11.0 0.00 0.26 0.00 61 1014.5
20191018140243 73 168 2.0 11.0 0.00 0.26 0.00 62 1014.4
20191018135554 73 94 6.0 10.0 0.00 0.26 0.00 62 1014.6
20191018135051 73 155 1.0 3.0 0.00 0.26 0.00 62 1014.7
20191018134706 73 268 0.0 2.0 0.00 0.26 0.00 61 1014.8
20191018134049 72 267 0.0 2.0 0.00 0.26 0.00 63 1014.8
20191018133548 72 171 0.0 2.0 0.00 0.26 0.00 65 1014.9
20191018133208 72 171 0.0 3.0 0.00 0.26 0.00 65 1014.9
20191018132545 71 171 1.0 4.0 0.00 0.26 0.00 66 1014.9
20191018132044 70 271 0.0 2.0 0.00 0.26 0.00 68 1015.0
20191018131610 69 271 0.0 3.0 0.00 0.26 0.00 68 1015.0
20191018131042 69 272 0.0 3.0 0.00 0.26 0.00 69 1015.0
20191018130539 69 281 0.0 0.0 0.00 0.26 0.00 69 1015.0
20191018130151 69 78 0.0 0.0 0.00 0.26 0.00 70 1015.0
20191018125536 68 78 0.0 0.0 0.00 0.26 0.00 70 1015.0
20191018125038 68 78 0.0 0.0 0.00 0.26 0.00 70 1015.0
20191018124636 68 78 0.0 0.0 0.00 0.26 0.00 70 1014.9
20191018124032 67 78 0.0 0.0 0.00 0.26 0.00 71 1015.0
20191018123540 66 78 0.0 0.0 0.00 0.26 0.00 72 1015.0
20191018123104 65 78 0.0 3.0 0.00 0.26 0.00 75 1015.0
20191018122534 65 78 0.0 4.0 0.00 0.26 0.00 74 1014.9
20191018122028 64 78 2.0 4.0 0.00 0.26 0.00 75 1014.8
20191018121527 63 63 1.0 4.0 0.00 0.26 0.00 75 1014.8
20191018121032 63 63 1.0 4.0 0.00 0.26 0.00 75 1014.7
20191018120523 62 55 0.0 3.0 0.00 0.26 0.00 76 1014.6
20191018120144 62 55 1.0 3.0 0.00 0.26 0.00 77 1014.5
20191018115519 61 55 1.0 4.0 0.00 0.26 0.00 77 1014.4
20191018115031 61 55 1.0 6.0 0.00 0.26 0.00 77 1014.2
20191018114547 61 59 1.0 6.0 0.00 0.26 0.00 77 1014.2
20191018114017 61 52 2.0 6.0 0.00 0.26 0.00 76 1014.2
20191018113516 62 78 1.0 9.0 0.00 0.26 0.00 78 1014.1
20191018113020 61 111 3.0 9.0 0.00 0.26 0.00 80 1014.1
20191018112522 60 59 1.0 7.0 0.00 0.26 0.00 80 1014.0
20191018112021 60 59 2.0 7.0 0.00 0.26 0.00 84 1014.0
20191018111527 59 70 2.0 5.0 0.00 0.26 0.00 80 1013.9
20191018111014 59 70 2.0 5.0 0.00 0.26 0.00 80 1013.8
20191018110514 59 53 2.0 3.0 0.00 0.26 0.00 80 1013.8
20191018110023 59 53 1.0 3.0 0.00 0.26 0.00 79 1013.7
20191018105520 59 53 1.0 4.0 0.00 0.26 0.00 80 1013.6
20191018105013 59 53 2.0 4.0 0.00 0.26 0.00 80 1013.5
20191018104540 59 53 0.0 3.0 0.00 0.26 0.00 79 1013.5
20191018104015 59 53 1.0 3.0 0.00 0.26 0.00 79 1013.5
20191018103512 59 53 1.0 3.0 0.00 0.26 0.00 79 1013.6
20191018103030 60 53 1.0 6.0 0.00 0.26 0.00 79 1013.6
20191018102512 60 58 3.0 6.0 0.00 0.26 0.00 79 1013.5
20191018102012 59 46 3.0 5.0 0.00 0.26 0.00 79 1013.5
20191018101545 59 63 2.0 5.0 0.00 0.26 0.00 79 1013.7
20191018101014 59 65 3.0 5.0 0.00 0.26 0.00 80 1013.7
20191018100511 59 42 0.0 4.0 0.00 0.26 0.00 80 1013.4
20191018100015 59 54 1.0 4.0 0.00 0.26 0.00 80 1013.5
20191018095516 59 58 1.0 5.0 0.00 0.26 0.00 80 1013.6
20191018095010 59 59 2.0 5.0 0.00 0.26 0.00 80 1013.5
20191018094524 59 49 0.0 2.0 0.00 0.26 0.00 80 1013.6
20191018094011 59 49 0.0 4.0 0.00 0.26 0.00 80 1013.5
20191018093511 59 49 1.0 4.0 0.00 0.26 0.00 80 1013.5
20191018093036 59 55 1.0 3.0 0.00 0.26 0.00 80 1013.6
20191018092510 59 55 1.0 3.0 0.00 0.26 0.00 79 1013.6
20191018092009 59 55 0.0 3.0 0.00 0.26 0.00 79 1013.6
20191018091511 59 55 1.0 3.0 0.00 0.26 0.00 79 1013.6
20191018091012 59 55 1.0 2.0 0.00 0.26 0.00 78 1013.6
20191018090508 59 55 1.0 2.0 0.00 0.26 0.00 78 1013.5
20191018090024 59 55 1.0 2.0 0.00 0.26 0.00 77 1013.6
20191018085508 59 55 0.0 4.0 0.00 0.26 0.00 77 1013.7
20191018085006 60 55 1.0 5.0 0.00 0.26 0.00 76 1013.5
20191018084506 60 49 3.0 6.0 0.00 0.26 0.00 77 1013.6
20191018084004 60 61 3.0 6.0 0.00 0.26 0.00 77 1013.5
20191018083504 60 57 1.0 4.0 0.00 0.26 0.00 76 1013.5
20191018083004 60 59 2.0 4.0 0.00 0.26 0.00 77 1013.4
20191018082506 60 59 2.0 4.0 0.00 0.26 0.00 77 1013.5
20191018082005 60 63 2.0 3.0 0.00 0.26 0.00 78 1013.4
20191018081503 60 63 1.0 3.0 0.00 0.26 0.00 79 1013.4
20191018081004 60 63 2.0 4.0 0.00 0.26 0.00 79 1013.3
20191018080501 60 63 2.0 4.0 0.00 0.26 0.00 79 1013.3
20191018080415 60 50 1.0 3.0 0.00 0.26 0.00 79 1013.5
20191018080001 60 50 1.0 4.0 0.00 0.26 0.00 79 1013.5
20191018075605 60 50 0.0 4.0 0.00 0.26 0.00 79 1013.5
20191018075059 60 50 1.0 3.0 0.00 0.26 0.00 79 1013.3
20191018074704 60 59 1.0 3.0 0.00 0.26 0.00 80 1013.3
20191018074058 60 59 2.0 3.0 0.00 0.26 0.00 79 1013.5
20191018073605 60 58 0.0 4.0 0.00 0.26 0.00 80 1013.5
20191018073304 60 59 2.0 4.0 0.00 0.26 0.00 81 1013.6
20191018072556 60 49 0.0 4.0 0.00 0.26 0.00 83 1013.6
20191018072102 60 52 0.0 4.0 0.00 0.26 0.00 82 1013.5
20191018071724 61 52 1.0 4.0 0.00 0.26 0.00 83 1013.6
20191018071054 60 22 2.0 4.0 0.00 0.26 0.00 84 1013.8
20191018070558 60 42 1.0 3.0 0.00 0.26 0.00 84 1013.9
20191018070128 60 38 1.0 3.0 0.00 0.26 0.00 83 1013.9
20191018065553 60 38 0.0 3.0 0.00 0.26 0.00 83 1013.8
20191018065055 60 38 1.0 3.0 0.00 0.26 0.00 83 1013.8
20191018064604 61 53 0.0 3.0 0.00 0.26 0.00 83 1013.9
20191018064102 61 53 1.0 3.0 0.00 0.26 0.00 83 1013.9